User: anonymous   Login
Location: Unspecified
(0.0000°N, 0.0000°E)
Time: 16:45:18
(UTC+00:00)
Language:

SR - Orbit

View from above orbital plane
View from above orbital plane
View from above satellite
View from above satellite

Ground track
Ground track

The orbit data is extracted from the following two-line orbital elements,

1 00046U 60007B   21101.91876502  .00000012  00000-0  25348-4 0  9995
2 00046  66.6903 320.0127 0217638 268.7993  88.8176 14.49385355182363
Epoch (UTC): 11 April 2021 22:03:01
Eccentricity: 0.0217638
inclination: 66.6903°
perigee height: 573 km
apogee height: 882 km
right ascension of ascending node: 320.0127°
argument of perigee: 268.7993°
revolutions per day: 14.49385355
mean anomaly at epoch: 88.8176°
orbit number at epoch: 18236

The dashed part of the orbit path shows where the satellite is in the earth's shadow,  

DLR